Weather WX

World > North America > United States > Ohio

Lattasburg, Ohio Regional Weather

Lat: 40.88N, Lon: 82.11W
Wx Zone: OHZ031
Warning FLW WEATHER ALERT - (More Info. Click Here) Warning
Feedback

Lattasburg, OH Regional Weather

Expires:201906241800;;009998
ASUS41 KCLE 241712
RWRCLE
OHIO REGIONAL WEATHER ROUNDUP
NATIONAL WEATHER SERVICE WILMINGTON, OH
100 PM EDT MON JUN 24 2019

NOTE: "FAIR" INDICATES FEW OR NO CLOUDS BELOW 12,000 FEET WITH NO
SIGNIFICANT WEATHER AND/OR OBSTRUCTIONS TO VISIBILITY.


OHZ009>014-019>023-028>033-038-089-241800-
   NORTHEAST OHIO
  
CITY           SKY/WX    TMP DP  RH WIND       PRES   REMARKS
CLE-HOPKINS    PTSUNNY   82  67  60 S12       29.77F                  
CLE-LAKEFRONT  FAIR      82  66  58 SW14G22   29.74F                  
CUY CO. ARPT   PTSUNNY   79  66  65 SW7       29.77F                  
LORAIN-ELYRIA  FAIR      79  63  57 SW14      29.76F                  
ASHTABULA      FAIR      81  67  62 S13G21    29.78F                  
AKRON-CANTON   CLOUDY    79  65  62 S16       29.81F                  
WOOSTER        FAIR      76  69  79 S12       29.81F                  
MANSFIELD      PTSUNNY   78  67  68 S14       29.79F                  
YOUNGSTOWN     CLOUDY    79  66  64 S9        29.81F                  
$$
 

SKY/WX - Weather  TMP - Temperature  DP - Dew Point  RH - Relative Humidity
WIND - Wind Direction/Speed PRES - Barometric Pressure VSB - Visibility
WCI - Wind Chill Index E13G22 Wind - East Wind 13 mph/Gusts of 22 mph